Spencer, IA

6:38 PM CST on February 19, 2018 (GMT -0600)
Spencer Municipal

Weather History for KSPW - January, 2012

Change the Weather History Date:

Tuesday, January 10, 2012

  Actual Average Record
Temperature  
Mean Temperature 39 °F -  
Max Temperature 57 °F 21 °F 57 °F (2012)
Min Temperature 21 °F 1 °F -18 °F (1977)
Degree Days  
Heating Degree Days 26    
Moisture  
Dew Point 27 °F    
Average Humidity 69    
Maximum Humidity 89    
Minimum Humidity 39    
Precipitation  
Precipitation 0.00 in - - ()
Sea Level Pressure  
Sea Level Pressure 29.86 in    
Wind  
Wind Speed 4 mph (SW)    
Max Wind Speed 17 mph    
Max Gust Speed -    
Visibility 10 miles    
Events      
Averages and records for this station are not official NWS values.
T = Trace of Precipitation, MM = Missing Value Source: NWS Daily Summary

Daily Weather History Graph

Daily Weather History Graph

Search for Another Location

Airport or City:

Trip Planner

Search our weather history database for the weather conditions in past years. The results will help you decide how hot, cold, wet, or windy it might be!

Date:

Astronomy

Jan. 10, 2012 Rise Set
Actual Time 7:51 AM CST 5:04 PM CST
Civil Twilight 7:19 AM CST 5:36 PM CST
Nautical Twilight 6:44 AM CST 6:12 PM CST
Astronomical Twilight 6:10 AM CST 6:46 PM CST
Moon 7:01 PM CST (1/10) 8:27 AM CST (1/10)
Length of Visible Light 10h 16m
Length of Day
9h 12m
Full, 98% of the Moon is Illuminated
Jan 10
Full
Jan 16
Last Quarter
Jan 23
New
Jan 30
First Quarter
Feb 7
Full

Hourly Weather History & Observations

Time (CST) Temp. Windchill Dew Point Humidity Pressure Visibility Wind Dir Wind Speed Gust Speed Precip Events Conditions
12:53 AM 26.1 °F - 23.0 °F 88% 30.02 in 10.0 mi Calm Calm - N/A   Clear
1:53 AM 27.0 °F 23.0 °F 21.9 °F 81% 30.02 in 10.0 mi NW 3.5 mph - N/A   Clear
2:53 AM 25.0 °F 20.7 °F 21.9 °F 88% 30.01 in 10.0 mi SSW 3.5 mph - N/A   Clear
3:53 AM 24.1 °F 19.7 °F 19.9 °F 84% 29.99 in 10.0 mi SW 3.5 mph - N/A   Clear
4:53 AM 23.0 °F 18.4 °F 19.9 °F 88% 29.99 in 10.0 mi SW 3.5 mph - N/A   Clear
5:53 AM 26.1 °F - 21.9 °F 84% 29.98 in 10.0 mi Calm Calm - N/A   Clear
6:53 AM 21.9 °F - 19.0 °F 89% 29.98 in 10.0 mi Calm Calm - N/A   Clear
8:53 AM 32.0 °F 26.4 °F 26.1 °F 79% 29.96 in 10.0 mi SW 5.8 mph - N/A   Clear
9:53 AM 37.9 °F 33.5 °F 30.0 °F 73% 29.95 in 10.0 mi WSW 5.8 mph - N/A   Clear
10:53 AM 43.0 °F 37.2 °F 30.0 °F 60% 29.94 in 10.0 mi SW 10.4 mph - N/A   Clear
11:53 AM 50.0 °F - 32.0 °F 50% 29.90 in 10.0 mi WSW 9.2 mph - N/A   Clear
12:53 PM 54.0 °F - 32.0 °F 43% 29.85 in 10.0 mi WSW 17.3 mph - N/A   Clear
1:53 PM 55.9 °F - 32.0 °F 40% 29.81 in 10.0 mi WSW 15.0 mph - N/A   Clear
2:53 PM 57.0 °F - 32.0 °F 39% 29.79 in 10.0 mi SW 12.7 mph - N/A   Clear
3:53 PM 55.0 °F - 32.0 °F 42% 29.78 in 10.0 mi WSW 10.4 mph - N/A   Clear
4:53 PM 46.0 °F 42.5 °F 30.0 °F 54% 29.78 in 10.0 mi SSW 6.9 mph - N/A   Clear
5:53 PM 42.1 °F 37.7 °F 30.0 °F 62% 29.77 in 10.0 mi SSW 6.9 mph - N/A   Clear
6:53 PM 39.9 °F 37.8 °F 28.9 °F 65% 29.77 in 10.0 mi South 3.5 mph - N/A   Clear
7:53 PM 37.9 °F 34.4 °F 28.0 °F 68% 29.75 in 10.0 mi SSE 4.6 mph - N/A   Clear
8:53 PM 34.0 °F 31.0 °F 27.0 °F 75% 29.74 in 10.0 mi South 3.5 mph - N/A   Clear
9:53 PM 32.0 °F - 26.1 °F 79% 29.71 in 10.0 mi Calm Calm - N/A   Clear
10:53 PM 33.1 °F - 27.0 °F 78% 29.69 in 10.0 mi Calm Calm - N/A   Clear
11:53 PM 28.0 °F - 24.1 °F 85% 29.68 in 10.0 mi Calm Calm - N/A   Clear